Tracking 22879 objects as of 20-Apr-2021
HD Live streaming from Space Station
objects crossing your sky now

TELSTAR 302

Track TELSTAR 302 now!
TELSTAR 302 is classified as:


NORAD ID: 15237
Int'l Code: 1984-093D
Perigee: 35,903.5 km
Apogee: 35,965.3 km
Inclination: 15.1 °
Period: 1,443.3 minutes
Semi major axis: 42305 km
RCS: 4.6276 m2 (large)
Launch date: August 30, 1984
Source: United States (US)
Launch site: AIR FORCE EASTERN TEST RANGE (AFETR)
aabbcc
Your satellite tracking list
Your tracking list is empty




NASA's NSSDC Master Catalog

Two Line Element Set (TLE):
1 15237U 84093D   21109.71851809 -.00000092  00000-0  00000-0 0  9996
2 15237  15.0823   0.2153 0007300  59.6848 131.6938  0.99772120 27647
Source of the keplerian elements: AFSPC